GOES 8 (23051 NORAD) Tracking and Keplerian Element Data

This shows tracking and keplerian element data for the satellite.

Feedback or suggestion? Click here.




ElementValue
Catalog23051
NameGOES 8
Epoch Orbit11919
Epoch Day34.3160861
Epoch Year2025
RAAN17.3818
Inclination14.0008
Eccentricity0.0003264
Argument of Perigee13.698
Mean Anonmoly164.2189
Mean Motion0.98905811
Decay Rate-2.02E-06
L11 23051U 94022A 25034.31608610 -.00000202 00000+0 00000+0 0 9990
L22 23051 14.0008 17.3818 0003264 13.6980 164.2189 0.98905811119199



Live tracking and technical data element details for GOES 8 (NORAD 23051). GOES 8 can be tracked NOW for your location showing map with azimuth and elevation plus other details from your city location.







IsCatalogInMostPopularTable: catalog: 23051, numindb: 323
Update: records affected: 1



GetName: 23051 GOES 8

Hit Count: updated at: Sat, 24 May 2025 17:13:06 GMT